This is the latest recevied weather packets stored in our database for station/object KE5WTH-14. If no packets are shown the sender has not sent any weather packets the latest 10 day(s).
| Time | Temp. | Humidity | Pressure | Rain* | Wind** | Luminosity | Snow |
|---|---|---|---|---|---|---|---|
| 1777840146 | 27.22° C | 35% | 1017.5 hPa | 0 mm | - | 895 W/m² | - |
| 1777840086 | 27.22° C | 36% | 1017.5 hPa | 0 mm | - | 893 W/m² | - |
| 1777840025 | 27.22° C | 37% | 1017.5 hPa | 0 mm | - | 897 W/m² | - |
| 1777839979 | 27.22° C | 37% | 1017.6 hPa | 0 mm | - | 898 W/m² | - |
| 1777839947 | 27.22° C | 36% | 1017.7 hPa | 0 mm | - | 902 W/m² | - |
| 1777839919 | 27.22° C | 36% | 1017.6 hPa | 0 mm | - | 902 W/m² | - |
| 1777839889 | 27.22° C | 37% | 1017.6 hPa | 0 mm | - | 906 W/m² | - |
| 1777839721 | 27.22° C | 37% | 1017.7 hPa | 0 mm | - | 906 W/m² | - |
| 1777839658 | 27.22° C | 41% | 1017.7 hPa | 0 mm | - | 906 W/m² | - |
| 1777839596 | 26.67° C | 39% | 1017.7 hPa | 0 mm | - | 909 W/m² | - |
| 1777839534 | 26.67° C | 36% | 1017.7 hPa | 0 mm | - | 911 W/m² | - |
| 1777839475 | 26.67° C | 36% | 1017.7 hPa | 0 mm | - | 911 W/m² | - |
| 1777839411 | 26.67° C | 38% | 1017.8 hPa | 0 mm | - | 914 W/m² | - |
| 1777839350 | 26.67° C | 37% | 1018 hPa | 0 mm | - | 920 W/m² | - |
| 1777839288 | 26.67° C | 34% | 1017.8 hPa | 0 mm | - | 923 W/m² | - |
| 1777839227 | 26.67° C | 35% | 1017.8 hPa | 0 mm | - | 930 W/m² | - |
| 1777839166 | 26.67° C | 36% | 1017.8 hPa | 0 mm | - | 930 W/m² | - |
| 1777839106 | 27.22° C | 37% | 1017.8 hPa | 0 mm | - | 930 W/m² | - |
| 1777839042 | 27.22° C | 36% | 1017.8 hPa | 0 mm | - | 927 W/m² | - |
| 1777838980 | 27.22° C | 35% | 1017.8 hPa | 0 mm | - | 927 W/m² | - |
| 1777838919 | 27.22° C | 39% | 1018 hPa | 0 mm | - | 930 W/m² | - |
| 1777838859 | 26.67° C | 38% | 1017.8 hPa | 0 mm | - | 930 W/m² | - |
| 1777838796 | 26.67° C | 36% | 1018 hPa | 0 mm | - | 930 W/m² | - |
| 1777838736 | 26.67° C | 37% | 1018.1 hPa | 0 mm | - | 934 W/m² | - |
| 1777838674 | 26.67° C | 37% | 1018 hPa | 0 mm | - | 935 W/m² | - |
* Rain latest hour (hover to see other rain measurements)
** Current wind speed in m/s (hover to see current wind gust speed)